CZ-6A DEB, 54347

Orbit data source: Space-Track

CZ-6A DEB, 54347 is space debris in SSO originally from a launch on Fri, 11 Nov 2022 UTC launched from the Taiyaun Space Center, China (TSC). Debris objects in space refer to the collection of defunct objects orbiting the Earth. Examples of debris include non-operational satellites, rocket bodies, and fragments generated from explosions, collisions, or faulty payload assembly.

Loading next visibility...
Identifier
54347, 2022-151CS
Orbit
SSO
Country
Flag of CNCN / PRC
Related business
Manufacturer
SAST
Mission
Spacecraft
Bus & Motor
Unknown
Mass
Unknown
Launch date (UTC)
2022-11-11 (3 years ago)
Launch vehicle
Unknown
Launch site
Taiyaun Space Center, China (TSC)
Object type
Payload
Rocket body
Debris
Shape & HBR
Unknown shape, 0.1 m
Radar Cross Section
Small (<0.1 m²)

Expand to show TLE details & history
Last TLE update: 2 days ago

TLE from 2 days ago
0 CZ-6A DEB
1 54347U 22151CS  25348.98764799  .00000573  00000-0  22928-3 0  9996
2 54347  98.6780   6.2065 0103929 264.4035  94.5287 14.29336137160595
Epoch: 2025-12-14T23:42Z
TLE epoch observation values (Epoch: 2025-12-14T23:42:12.786Z)
Latitude
-0.00002°
Longitude
-73.23945°
Altitude
803.535 km
Speed
7.448 km/s
True Right ascension
00h 24m 49s
True Declination
0° 00' 00"
Sunlit
Object was in daylight at epoch
Visualization orbit readout
Latitude
Unknown
Longitude
Unknown
Altitude
Unknown
Speed
Unknown
Apparent Right ascension
Unknown
Apparent Declination
Unknown
Sunlit
N/A
Visualization observer readout
Local Sidereal Time
17:48:08
Azimuth
Unknown
Elevation
Unknown
Doppler factor
Unknown
Orbital elements
Apogee altitude
865.604 km
Perigee altitude
716.586 km
Semi-major axis
7,169.232 km
Eccentricity
0.01039
Inclination
98.678°
RAAN
6.2065°
Arg. of periapsis
264.4035°
True anomaly
95.71462°
Mean anomaly
94.5287°
Eccentric anomaly
95.12179°
Mean motion
3.57548 °/min
Orbital period
100.69 mins
BSTAR
0.00022928
Loading maneuver chart data...
Computing Atmospheric mass density...

Documentation

Showing up to 5 results
|